WetterOnline ( https://www.wetteronline.de )

Wetter aktuell Fürstenzell

Aktuelles Wetter: Fürstenzell (480m)

6-stündlich | Neueste Meldungen
Ortszeit Temperatur Wetter
Sa, 13.04. 2:00 10.2° C wolkenlos
Fr, 12.04. 20:00 15.9° C wolkig
Fr, 12.04. 14:00 17.8° C fast wolkenlos
Fr, 12.04. 8:00 6.7° C Nebel
Fr, 12.04. 2:00 9.1° C wolkenlos
Do, 11.04. 20:00 12.9° C wolkenlos
Do, 11.04. 14:00 14.4° C fast wolkenlos
Do, 11.04. 8:00 5.2° C Nebel
Ortszeit Temperatur Wetter
Sa, 13.04. 6:00 8.0° C wolkig
Sa, 13.04. 5:50 8.0° C wolkig
Sa, 13.04. 5:40 8.0° C bedeckt
Sa, 13.04. 5:30 7.9° C wolkig
Sa, 13.04. 5:20 7.9° C wolkig
Sa, 13.04. 5:10 8.0° C bedeckt
Sa, 13.04. 5:00 8.1° C wolkig
Sa, 13.04. 4:30 8.4° C wolkig
Sa, 13.04. 4:00 8.8° C fast wolkenlos
Sa, 13.04. 3:30 9.0° C fast wolkenlos
Sa, 13.04. 3:00 9.4° C wolkenlos
Ortszeit Relative Feuchte Sichtweite
Sa, 13.04. 2:00 87% 30 km
Fr, 12.04. 20:00 61% 40 km
Fr, 12.04. 14:00 57% 30 km
Fr, 12.04. 8:00 93% 5.0 km
Fr, 12.04. 2:00 82% 40 km
Do, 11.04. 20:00 66% 45 km
Do, 11.04. 14:00 54% 45 km
Do, 11.04. 8:00 100% 100 m
Ortszeit Relative Feuchte Sichtweite
Sa, 13.04. 6:00 95% 17 km
Sa, 13.04. 5:50 95% -
Sa, 13.04. 5:40 95% -
Sa, 13.04. 5:30 96% 14 km
Sa, 13.04. 5:20 96% -
Sa, 13.04. 5:10 95% -
Sa, 13.04. 5:00 95% 17 km
Sa, 13.04. 4:30 94% 19 km
Sa, 13.04. 4:00 92% 23 km
Sa, 13.04. 3:30 92% 22 km
Sa, 13.04. 3:00 90% 25 km
Ortszeit Niederschlagsmenge Niederschlagsart
Sa, 13.04. 2:00 0.0 l/m2 in 6 Std. -
Fr, 12.04. 20:00 0.0 l/m2 in 12 Std. -
Fr, 12.04. 14:00 0.0 l/m2 in 6 Std. -
Fr, 12.04. 8:00 0.0 l/m2 in 12 Std. -
Fr, 12.04. 2:00 0.0 l/m2 in 6 Std. -
Do, 11.04. 20:00 0.0 l/m2 in 12 Std. -
Do, 11.04. 14:00 0.0 l/m2 in 6 Std. -
Do, 11.04. 8:00 0.0 l/m2 in 12 Std. -
Ortszeit Niederschlagsmenge Niederschlagsart
Sa, 13.04. 6:00 0.0 l/m2 in 1 Std. -
Sa, 13.04. 5:50 keine Meldung -
Sa, 13.04. 5:40 keine Meldung -
Sa, 13.04. 5:30 0.0 l/m2 in 30 Min -
Sa, 13.04. 5:20 keine Meldung -
Sa, 13.04. 5:10 keine Meldung -
Sa, 13.04. 5:00 0.0 l/m2 in 1 Std. -
Sa, 13.04. 4:30 0.0 l/m2 in 30 Min -
Sa, 13.04. 4:00 0.0 l/m2 in 1 Std. -
Sa, 13.04. 3:30 0.0 l/m2 in 30 Min -
Sa, 13.04. 3:00 0.0 l/m2 in 1 Std. -
Ortszeit Stärke Spitze Richtung
km/h Bft. km/h Grad Sektor
Sa, 13.04. 2:00 4 1 14 30° NO
Fr, 12.04. 20:00 7 2 22 320° NW
Fr, 12.04. 14:00 7 2 14 250° W
Fr, 12.04. 8:00 6 1 11 50° NO
Fr, 12.04. 2:00 2 1 13 90° O
Do, 11.04. 20:00 7 2 22 240° SW
Do, 11.04. 14:00 7 2 14 230° SW
Do, 11.04. 8:00 7 2 11 60° NO
Ortszeit Stärke Spitze Richtung
km/h Bft. km/h Grad Sektor
Sa, 13.04. 6:00 4 1 7 40° NO
Sa, 13.04. 5:50 4 1 - 40° NO
Sa, 13.04. 5:40 6 1 - 50° NO
Sa, 13.04. 5:30 6 1 7 50° NO
Sa, 13.04. 5:20 6 1 - 50° NO
Sa, 13.04. 5:10 6 1 - 50° NO
Sa, 13.04. 5:00 6 1 6 40° NO
Sa, 13.04. 4:30 6 1 6 50° NO
Sa, 13.04. 4:00 4 1 7 40° NO
Sa, 13.04. 3:30 4 1 7 60° NO
Sa, 13.04. 3:00 4 1 7 40° NO
Ortszeit Untergrenze Bedeckung Gattung
total tief tief mittel hoch
Sa, 13.04. 2:00 - 0/8 0/8 - - -
Fr, 12.04. 20:00 9000 m 8/8 0/8 - - -
Fr, 12.04. 14:00 7500 m 1/8 0/8 - - -
Fr, 12.04. 8:00 <30 m 2/8 0/8 - - -
Fr, 12.04. 2:00 - 0/8 0/8 - - -
Do, 11.04. 20:00 - 0/8 0/8 - - -
Do, 11.04. 14:00 10500 m 1/8 0/8 - - -
Do, 11.04. 8:00 <30 m 7/8 0/8 - - -
Ortszeit Bedeckungsgrad in Achtel und Wolkenuntergrenze
Sa, 13.04. 6:00 8(9000m)
Sa, 13.04. 5:50 8(9000m)
Sa, 13.04. 5:40 8
Sa, 13.04. 5:30 8(9000m)
Sa, 13.04. 5:20 8(9000m)
Sa, 13.04. 5:10 8
Sa, 13.04. 5:00 7(8700m) 8(9000m)
Sa, 13.04. 4:30 1(8400m) 4(9000m) 7(9000m)
Sa, 13.04. 4:00 1(7800m)
Sa, 13.04. 3:30 2(8100m)
Sa, 13.04. 3:00 keine Wolken
Ortszeit Luftdruck NN (hPa) Tendenz (hPa in 3 Std.)
Sa, 13.04. 2:00 1031 - 0,3
Fr, 12.04. 20:00 1029 - 0,7
Fr, 12.04. 14:00 1032 - 1,0
Fr, 12.04. 8:00 1035 + 0,6
Fr, 12.04. 2:00 1034 0,0
Do, 11.04. 20:00 1033 + 0,2
Do, 11.04. 14:00 1033 - 0,5
Do, 11.04. 8:00 1034 + 0,5
Ortszeit Luftdruck NN (hPa) Tendenz (hPa in 3 Std.)
Sa, 13.04. 6:00 1031 + 0,1
Sa, 13.04. 5:50 1031 keine Meldung
Sa, 13.04. 5:40 1031 keine Meldung
Sa, 13.04. 5:30 1031 - 0,1
Sa, 13.04. 5:20 1031 keine Meldung
Sa, 13.04. 5:10 1031 keine Meldung
Sa, 13.04. 5:00 1031 - 0,2
Sa, 13.04. 4:30 1031 - 0,4
Sa, 13.04. 4:00 1031 - 0,4
Sa, 13.04. 3:30 1031 - 0,6
Sa, 13.04. 3:00 1031 - 0,6
Ortszeit Schneehöhe (cm)
Sa, 13.04. 2:00 0
Fr, 12.04. 20:00 0
Fr, 12.04. 14:00 0
Fr, 12.04. 8:00 0
Fr, 12.04. 2:00 0
Do, 11.04. 20:00 0
Do, 11.04. 14:00 0
Do, 11.04. 8:00 0
Ortszeit Schneehöhe (cm)
Sa, 13.04. 6:00 0
Sa, 13.04. 5:50 0
Sa, 13.04. 5:40 -
Sa, 13.04. 5:30 0
Sa, 13.04. 5:20 0
Sa, 13.04. 5:10 -
Sa, 13.04. 5:00 0
Sa, 13.04. 4:30 0
Sa, 13.04. 4:00 0
Sa, 13.04. 3:30 0
Sa, 13.04. 3:00 0
Link zu dieser Seite / Seite empfehlen

Das Wetter in ...